Regional Weather Roundup
Issued by NWS

Home | Current Version | Previous Version | Graphics & Text | Print | Product List | Glossary On
Versions: 1 2 3 4 5 6 7 8 9 10 11 12 13 14 15 16 17 18 19 20 21 22 23 24 25 26 27 28 29 30 31 32 33 34 35 36 37 38 39 40 41 42 43 44 45 46 47 48 49 50
000
ASUS43 KMPX 182301
RWRMN
WEATHER ROUNDUP FOR MINNESOTA
NATIONAL WEATHER SERVICE TWIN CITIES/CHANHASSEN MN
600 PM CDT WED OCT 18 2017


NOTE: "FAIR" INDICATES FEW OR NO CLOUDS BELOW 12,000 FEET WITH NO
SIGNIFICANT WEATHER AND/OR OBSTRUCTIONS TO VISIBILITY. N/A MEANS
CURRENT SKY AND/OR WEATHER CONDITIONS ARE NOT AVAILABLE.

MNZ060>063-068>070-190000-
   Twin Cities Metro

CITY           SKY/WX    TMP DP  RH WIND       PRES   REMARKS
TWIN CITIES    MOCLDY    67  27  22 W15       29.88R
ST PAUL        CLEAR     66  27  23 W13       29.88R
CRYSTAL        CLOUDY    64  24  21 W17       29.87R
BLAINE         MOCLDY    66  28  24 W16G22    29.87R
LAKEVILLE      CLEAR     64  30  27 W8        29.90R
EDEN PRAIRIE   CLOUDY    66  21  18 W16G24    29.89R
SOUTH ST PAUL  CLEAR     67  27  21 W12G18    29.87S
LAKE ELMO      FAIR      64  28  25 W14G20    29.87R
$$
MNZ001>005-007-008-013>017-022>024-027-028-190000-
   Northwest Minnesota

CITY           SKY/WX    TMP DP  RH WIND       PRES   REMARKS
BEMIDJI        CLEAR     54  14  20 W22G29    29.81R
HALLOCK        CLEAR     57   1  10 W25G33    29.74R
ROSEAU         CLEAR     57   9  14 W20G31    29.71R
WARROAD        CLEAR     55  19  24 W21G30    29.69R
CROOKSTON      CLEAR     57  16  19 W22G29    29.84R
FOSSTON        CLEAR     55   9  15 W18G29    29.85R
DETROIT LAKES  PTCLDY    54  14  20 W17G23    29.91R
MOORHEAD       PTCLDY    57  18  21 W13G20    29.92R
PARK RAPIDS    LGT RAIN  56  16  20 W21       29.86R
MAHNOMEN       FAIR      55  15  20 W24G32    29.87R
$$
MNZ006-009>011-018-025>026-190000-
   North Central Minnesota

CITY           SKY/WX    TMP DP  RH WIND       PRES   REMARKS
BAUDETTE       CLEAR     55  11  17 W18G32    29.68R
FLAG ISLAND    CLEAR     55  16  21 SW29G36   29.60S
INTL FALLS     CLEAR     56  12  17 W20G33    29.67R
WASKISH        CLEAR     54  27  35 W22G29    29.75R
BIG FORK       CLEAR     55  14  19 W15G24    29.75R
LONGVILLE      CLOUDY    55  12  18 W10G18    29.82R
GRAND RAPIDS   CLEAR     57  13  17 W13       29.81R
CRANE LAKE     CLEAR     55  16  21 W7G16     29.70R
ORR            CLEAR     55  10  16 W15G30    29.70R
COOK           CLEAR     55  14  19 W16       29.73R
WALKER         FAIR      55  14  19 W16G25    29.83R
$$
MNZ012-019>021-037-190000-
   Northeast Minnesota

CITY           SKY/WX    TMP DP  RH WIND       PRES   REMARKS
DULUTH         CLEAR     58  15  18 W16G30    29.77R
ELY            CLEAR     55   9  15 W16G28    29.69S
HIBBING        CLEAR     54  18  24 W9        29.76R
EVELETH        CLEAR     58  -4   8 W14G20    29.75R
DULUTH HARBOR  CLEAR     64  25  22 W17G25    29.76R
TWO HARBORS    CLEAR     64  28  25 W14G22    29.72R
SILVER BAY     CLEAR     63  12  14 W8G18     29.69R
GRAND MARAIS     N/A     63  22  20 W13G21    29.63R
G MARAIS ARPRT CLEAR     55  12  18 SW10G21   29.66R
$$
MNZ029>031-032-039>041-046>048-054>057-064-190000-
   West Central Minnesota

CITY           SKY/WX    TMP DP  RH WIND       PRES   REMARKS
FERGUS FALLS   PTCLDY    55  25  30 W15       29.94R
WHEATON        PTCLDY    59  21  23 W7        29.98R
MORRIS         PTCLDY    57  28  33 W13       29.95R
ALEXANDRIA     PTCLDY    56  24  29 W16G24    29.94R
ELBOW LAKE     FAIR      56  22  26 NW13      29.95R
WADENA         CLOUDY    55  21  26 W9G16     29.89R
GLENWOOD       PTCLDY    55  28  35 W12       29.94S
APPLETON       MOCLDY    59  25  27 W12       29.97R
BENSON         MOCLDY    57  25  28 NW13      29.98R
ORTONVILLE     CLOUDY    57  27  30 W10G17    29.98R
MADISON        PTCLDY    61  27  27 W9        29.99R
WILLMAR        FAIR      59  28  31 W10       29.98R
$$
MNZ033>034-036-042>043-049>051-058-059-190000-
   Central Minnesota

CITY           SKY/WX    TMP DP  RH WIND       PRES   REMARKS
ST CLOUD       CLOUDY    59  22  24 W15G23    29.90R
SAUK CENTRE    FAIR      55  29  37 W9        29.93R
PAYNESVILLE    CLOUDY    56  26  31 W12       29.94R
AITKIN         CLOUDY    55  19  24 W9G18     29.82R
PINE RIVER     CLOUDY    55  19  24 W9G21     29.88R
BRAINERD       CLOUDY    57  19  22 W14       29.86R
STAPLES        CLOUDY    55  14  19 W15G26    29.88R
LONG PRAIRIE   FAIR      55  27  33 SW12G17   29.92R
LITTLE FALLS   CLOUDY    57   9  14 W12G18    29.90R
LITCHFIELD     CLOUDY    61  28  29 W8        29.95R
BUFFALO        CLOUDY    60  21  21 W10G18    29.93R
MAPLE LAKE     CLOUDY    60  25  25 W13       29.93R
HUTCHINSON     CLEAR     62  29  29 W7        29.96R
$$
MNZ037-044-045-052-053-190000-
   East Central Minnesota

CITY           SKY/WX    TMP DP  RH WIND       PRES   REMARKS
PRINCETON      CLOUDY    63  21  20 W13G20    29.89R
MORA           CLEAR     59  18  20 W12G25    29.87R
CAMBRIDGE      CLEAR     64  37  36 W7        29.87R
RUSH CITY      PTCLDY    61  22  22 W8G16     29.85R
MOOSE LAKE     CLEAR     59  23  25 W7        29.80R
HINCKLEY       FAIR      61  21  21 W13G22    29.84R
CLOQUET        CLEAR     61   9  12 W10       29.79R
MCGREGOR       CLEAR     59  18  20 W13G18    29.82R
$$
MNZ071>073-080-081-089-090-097-098-190000-
   Southwest Minnesota

CITY           SKY/WX    TMP DP  RH WIND       PRES   REMARKS
MONTEVIDEO     MOCLDY    61  27  27 NW6       29.98S
GRANITE FALLS  CLOUDY    60  28  28 NW7       29.99R
CANBY          CLEAR     61  28  29 W6        30.00R
MARSHALL       CLEAR     62  26  25 N8        29.99R
REDWOOD FALLS  CLOUDY    64  28  25 NW9       29.97R
OLIVIA         CLOUDY    59  28  31 NW7       29.97R
PIPESTONE      CLEAR     64  27  24 N9        30.01R
WORTHINGTON    CLEAR     66  34  30 N6        30.01R
JACKSON        CLOUDY    64  32  29 NW10      30.00R
TRACY          CLEAR     64  28  25 NW5       29.99R
SLAYTON        CLEAR     63 -24   2 N3        30.01R
$$
MNZ065>067-074>077-082>085-091>093-190000-
   South Central Minnesota

CITY           SKY/WX    TMP DP  RH WIND       PRES   REMARKS
MANKATO        CLOUDY    66  33  29 NW10      29.95R
NEW ULM        CLOUDY    63  28  27 NW8       29.95R
ST JAMES       CLOUDY    64  28  25 NW7       29.98R
FAIRMONT       CLOUDY    68  35  29 N8        29.97R
GLENCOE        CLOUDY    64  29  26 W10G20    29.93R
FARIBAULT      CLOUDY    64  34  32 W7        29.93R
OWATONNA       PTCLDY    64  37  36 W6        29.93R
WASECA         PTCLDY    64  32  29 W8        29.95R
$$
MNZ078>079-086>088-094>096-190000-
   Southeast Minnesota

CITY           SKY/WX    TMP DP  RH WIND       PRES   REMARKS
ROCHESTER      CLEAR     63  48  58 W7        29.93R
RED WING       CLEAR     68  34  28 W8G16     29.86S
STANTON        PTCLDY    65  33  29 W6        29.89R
DODGE CENTER   CLEAR     64  43  45 W7        29.93R
WINONA         CLEAR     70  46  43 NW7       29.90R
AUSTIN         CLEAR     66  45  45 W5        29.93R
PRESTON        CLEAR     64  47  54 W8        29.92R
$$
ABBREVIATIONS USED IN REMARKS
   TC - TEMPERATURES IN CELSIUS
  WCI - WIND CHILL INDEX
   HX - HEAT INDEX
  VSB - VISIBILITY
$$



USA.gov is the U.S. government's official web portal to all federal, state and local government web resources and services.